Weather History for Nassau, Bahamas

Change the Weather History Date:

Thursday, January 24, 2013

  Actual Average Record
Temperature  
Mean Temperature 72 °F -  
Max Temperature 76 °F 78 °F 84 °F (2007)
Min Temperature 68 °F 62 °F 59 °F (1997)
Cooling Degree Days 7    
Growing Degree Days 22 (Base 50)    
Moisture  
Dew Point 58 °F    
Average Humidity 60    
Maximum Humidity 68    
Minimum Humidity 44    
Precipitation  
Precipitation 0.00 in 0.05 in - ()
Sea Level Pressure  
Sea Level Pressure 30.22 in    
Wind  
Wind Speed 9 mph ()    
Max Wind Speed 16 mph    
Max Gust Speed -    
Visibility 6.9 miles    
Events      
Averages and records for this station are not official NWS values.
T = Trace of Precipitation, MM = Missing Value Source: Averaged Metar Reports

Daily Weather History Graph

Daily Weather History Graph

Search for Another Location

Airport:

Trip Planner

Search our weather history database for the weather conditions in past years. The results will help you decide how hot, cold, wet, or windy it might be!

Date:

Astronomy

Jan. 24, 2013 Rise Set
Actual Time 6:55 AM EST 5:49 PM EST
Civil Twilight 6:31 AM EST 6:13 PM EST
Nautical Twilight 6:03 AM EST 6:40 PM EST
Astronomical Twilight 5:36 AM EST 7:08 PM EST
Moon 3:52 PM EST (1/24) 4:47 AM EST (1/24)
Length of Visible Light 11h 42m
Length of Day
10h 53m
Waxing Gibbous, 94% of the Moon is Illuminated
Jan 24
Waxing Gibbous
Jan 26
Full
Feb 3
Last Quarter
Feb 10
New
Feb 17
First Quarter

Hourly Weather History & Observations

Time (EST) Temp. Dew Point Humidity Pressure Visibility Wind Dir Wind Speed Gust Speed Precip Events Conditions
12:00 AM 69.8 °F 57.2 °F 64% 30.23 in 6.2 mi NE 11.5 mph - N/A   Mostly Cloudy
1:00 AM 70 °F 59 °F 60%  in 8 mi NE 11.5 mph - -  
1:00 AM 69.8 °F 59.0 °F 68% 30.22 in 6.2 mi NE 11.5 mph - N/A   Mostly Cloudy
2:00 AM 69.8 °F 59.0 °F 68% 30.20 in 6.2 mi NE 8.1 mph - N/A   Mostly Cloudy
3:00 AM 69.8 °F 59.0 °F 68% 30.19 in 6.2 mi NE 6.9 mph - N/A   Mostly Cloudy
4:00 AM 69 °F 59 °F 64% 30.19 in 8 mi NE 11.5 mph - -   Partly Cloudy
4:00 AM 69.8 °F 59.0 °F 68% 30.19 in 6.2 mi NE 11.5 mph - N/A   Mostly Cloudy
5:00 AM 69.8 °F 59.0 °F 68% 30.19 in 6.2 mi NE 5.8 mph - N/A   Mostly Cloudy
6:00 AM 69.8 °F 57.2 °F 64% 30.21 in 6.2 mi NE 5.8 mph - N/A   Mostly Cloudy
7:00 AM 70 °F 59 °F 60% 30.20 in 9 mi NE 11.5 mph - -   Partly Cloudy
7:00 AM 69.8 °F 59.0 °F 68% 30.20 in 6.2 mi NE 11.5 mph - N/A   Scattered Clouds
8:00 AM 69.8 °F 57.2 °F 64% 30.23 in 6.2 mi NE 11.5 mph - N/A   Scattered Clouds
9:00 AM 71.6 °F 59.0 °F 64% 30.05 in 6.2 mi ENE 9.2 mph - N/A   Scattered Clouds
10:00 AM 73 °F 60 °F 54% 30.28 in 9 mi NE 13.8 mph - -   Partly Cloudy
10:00 AM 73.4 °F 59.0 °F 61% 30.27 in 6.2 mi NE 13.8 mph - N/A   Scattered Clouds
11:00 AM 71.6 °F 57.2 °F 60% 30.31 in 6.2 mi ENE 16.1 mph - N/A   Scattered Clouds
12:00 PM 73.4 °F 55.4 °F 53% 30.25 in 6.2 mi NE 11.5 mph - N/A   Scattered Clouds
1:00 PM 76 °F 58 °F 44% 30.23 in 9 mi NE 9.2 mph - -   Partly Cloudy
1:00 PM 75.2 °F 59.0 °F 57% 30.23 in 6.2 mi NE 9.2 mph - N/A   Scattered Clouds
2:00 PM 73.4 °F 55.4 °F 53% 30.21 in 6.2 mi NE 6.9 mph - N/A   Scattered Clouds
3:00 PM 71.6 °F 55.4 °F 57% 30.19 in 6.2 mi NE 11.5 mph - N/A   Scattered Clouds
4:00 PM 73 °F 56 °F 45% 30.19 in 9 mi North 9.2 mph - -   Scattered Clouds
4:00 PM 73.4 °F 55.4 °F 53% 30.19 in 6.2 mi North 9.2 mph - N/A   Partly Cloudy
5:00 PM 71.6 °F 55.4 °F 57% 30.20 in 6.2 mi North 9.2 mph - N/A   Partly Cloudy
6:00 PM 69.8 °F 57.2 °F 64% 30.21 in 6.2 mi North 9.2 mph - N/A   Scattered Clouds
7:00 PM 70 °F - % 30.23 in 9 mi North 9.2 mph - -   Partly Cloudy
7:00 PM 69.8 °F 57.2 °F 64% 30.22 in 6.2 mi North 9.2 mph - N/A   Scattered Clouds
8:00 PM 69.8 °F 57.2 °F 64% 30.24 in 6.2 mi North 9.2 mph - N/A   Scattered Clouds
10:00 PM 69 °F 56 °F 53% 30.26 in 9 mi North 9.2 mph - -   Partly Cloudy
10:00 PM 68.0 °F 55.4 °F 64% 30.25 in 6.2 mi North 9.2 mph - N/A   Scattered Clouds
11:00 PM 69.8 °F 55.4 °F 60% 30.25 in 6.2 mi North 6.9 mph - N/A   Scattered Clouds